User: anonymous   Login
Location: Calvatone
(45.1167°N, 10.4333°E)
Time: 07:29:20
(UTC+00:00)
Language:

IRIDIUM 171 - Orbit

View from above orbital plane
View from above orbital plane
View from above satellite
View from above satellite

Ground track
Ground track

The orbit data is extracted from the following two-line orbital elements,

1 43929U 19002H   24141.54497724  .00000475  00000-0  16252-3 0  9998
2 43929  86.3944 310.4294 0002162  96.9932 263.1509 14.34222592280364
Epoch (UTC): 20 May 2024 13:04:46
Eccentricity: 0.0002162
inclination: 86.3944°
perigee height: 776 km
apogee height: 779 km
right ascension of ascending node: 310.4294°
argument of perigee: 96.9932°
revolutions per day: 14.34222592
mean anomaly at epoch: 263.1509°
orbit number at epoch: 28036

The dashed part of the orbit path shows where the satellite is in the earth's shadow,  

DLR